sat.trackr.live / text

‹ back to catalog

STARLINK-33579

NORAD 62764 · 2025-015G

PAYLOAD ACTIVE UNKNOWN

§ Identity

Operator
Country
US
Launch date
2025-01-21
Launch site
AFWTR
Launch vehicle
Mass (kg)
RCS (m²)

Purposes: comms

External: N2YO · Heavens-Above · Gunter

§ Orbital elements

Epoch: 2026-05-25T04:54:44.314848Z

Period
94.01 min
Inclination
53.1596°
Eccentricity
0.0001441
Mean motion
15.31715513 rev/d
Perigee alt
469.7 km
Apogee alt
471.7 km
Semi-major
6,848.8 km
B*
8.1623e-4
RAAN
326.5037°
Arg perigee
69.8000°
Mean anomaly
290.3156°
Rev number
7,620

§ Raw data

STARLINK-335791 62764U 25015G   26145.20467957  .00025061  00000+0  81623-3 0  99922 62764  53.1596 326.5037 0001441  69.8000 290.3156 15.31715513 76208

JSON: /api/v1/satellites/62764 · /tle

For live sub-satellite position, see the globe view (requires WebGL).

§ Visibility from observer

Set your observer location to see the next 7 days of passes ≥ 10°. The values pass through the URL so the page stays shareable.

No JS? Fill the form by hand. The geolocation button needs JavaScript.